Weather History for KJDD - March, 2013

Change the Weather History Date:

Tuesday, March 5, 2013

  Actual Average (KTYR) Record (KTYR)
Temperature  
Mean Temperature 54 °F 55 °F  
Max Temperature 66 °F 65 °F 91 °F (1991)
Min Temperature 41 °F 45 °F 20 °F (1978)
Degree Days  
Heating Degree Days 11 11  
Month to date heating degree days 56  
Since 1 July heating degree days 1948  
Cooling Degree Days 0 0  
Month to date cooling degree days 0  
Year to date cooling degree days 12  
Growing Degree Days 4 (Base 50)    
Moisture  
Dew Point 30 °F    
Average Humidity 45    
Maximum Humidity 77    
Minimum Humidity 23    
Precipitation  
Precipitation 0.00 in 0.14 in 2.42 in (1959)
Month to date precipitation 0.67  
Year to date precipitation 7.54  
Snow  
Snow 0.00 in - - ()
Month to date snowfall  
Since 1 July snowfall  
Snow Depth -    
Sea Level Pressure  
Sea Level Pressure 30.20 in    
Wind  
Wind Speed 13 mph (NW)    
Max Wind Speed 22 mph    
Max Gust Speed 36 mph    
Visibility 10 miles    
Events      
T = Trace of Precipitation, MM = Missing Value Source: NWS Daily Summary

Daily Weather History Graph

Daily Weather History Graph

Search for Another Location

Airport or City:

Trip Planner

Search our weather history database for the weather conditions in past years. The results will help you decide how hot, cold, wet, or windy it might be!

Date:

Astronomy

Mar. 05, 2013 Rise Set
Actual Time 6:44 AM CST 6:22 PM CST
Civil Twilight 6:19 AM CST 6:47 PM CST
Nautical Twilight 5:51 AM CST 7:15 PM CST
Astronomical Twilight 5:22 AM CST 7:44 PM CST
Moon 1:43 AM CST (3/5) 12:16 PM CST (3/5)
Length of Visible Light 12h 27m
Length of Day
11h 38m
Last Quarter, 40% of the Moon is Illuminated
Mar 5
Last Quarter
Mar 11
New
Mar 19
First Quarter
Mar 27
Full
Apr 2
Last Quarter

Hourly Weather History & Observations

Time (CST) Temp. Windchill Dew Point Humidity Pressure Visibility Wind Dir Wind Speed Gust Speed Precip Events Conditions
12:15 AM 66.2 °F - 57.2 °F 73% 29.72 in 10.0 mi South 5.8 mph - N/A   Clear
12:35 AM 64.4 °F - 57.2 °F 77% 29.79 in 9.0 mi NNW 10.4 mph 20.7 mph N/A   Partly Cloudy
12:55 AM 66.2 °F - 57.2 °F 73% 29.81 in 9.0 mi WNW 6.9 mph - N/A   Scattered Clouds
1:15 AM 66.2 °F - 57.2 °F 73% 29.81 in 10.0 mi Calm Calm - N/A   Scattered Clouds
1:35 AM 66.2 °F - 57.2 °F 73% 29.82 in 9.0 mi WSW 3.5 mph - N/A   Mostly Cloudy
1:55 AM 62.6 °F - 46.4 °F 55% 29.85 in 10.0 mi NNW 18.4 mph 24.2 mph N/A   Overcast
2:15 AM 59.0 °F - 44.6 °F 59% 29.88 in 10.0 mi NNW 21.9 mph 28.8 mph N/A   Overcast
2:35 AM 57.2 °F - 42.8 °F 59% 29.90 in 10.0 mi NNW 17.3 mph 21.9 mph N/A   Overcast
2:55 AM 57.2 °F - 42.8 °F 59% 29.93 in 10.0 mi NW 19.6 mph 31.1 mph N/A   Overcast
3:15 AM 55.4 °F - 41.0 °F 58% 29.95 in 10.0 mi NNW 18.4 mph 32.2 mph N/A   Overcast
3:35 AM 53.6 °F - 42.8 °F 67% 29.97 in 10.0 mi NNW 17.3 mph 24.2 mph N/A   Overcast
3:55 AM 51.8 °F - 39.2 °F 62% 30.01 in 8.0 mi NNW 19.6 mph 32.2 mph N/A   Mostly Cloudy
4:15 AM 50.0 °F - 37.4 °F 62% 30.03 in 9.0 mi NNW 20.7 mph 28.8 mph N/A   Scattered Clouds
4:35 AM 50.0 °F - 37.4 °F 62% 30.05 in 8.0 mi NNW 20.7 mph 35.7 mph N/A   Clear
4:55 AM 50.0 °F - 35.6 °F 58% 30.08 in 9.0 mi NNW 20.7 mph 29.9 mph N/A   Clear
5:15 AM 48.2 °F - 35.6 °F 62% 30.09 in 10.0 mi NNW 21.9 mph 27.6 mph N/A   Clear
5:35 AM 48.2 °F - 35.6 °F 62% 30.09 in 10.0 mi NNW 21.9 mph 27.6 mph N/A   Clear
5:55 AM 48.2 °F - 35.6 °F 62% 30.11 in 10.0 mi NNW 13.8 mph 25.3 mph N/A   Clear
6:15 AM 48.2 °F - 33.8 °F 58% 30.13 in 10.0 mi NNW 12.7 mph 27.6 mph N/A   Clear
6:35 AM 46.4 °F 40.4 °F 35.6 °F 66% 30.14 in 10.0 mi NNW 13.8 mph 23.0 mph N/A   Clear
7:15 AM 46.4 °F 41.1 °F 35.6 °F 66% 30.17 in 10.0 mi NNW 11.5 mph 21.9 mph N/A   Clear
7:35 AM 46.4 °F 40.1 °F 35.6 °F 66% 30.19 in 10.0 mi NW 15.0 mph 21.9 mph N/A   Clear
7:55 AM 46.4 °F 39.2 °F 33.8 °F 62% 30.20 in 10.0 mi NNW 18.4 mph 26.5 mph N/A   Clear
8:15 AM 48.2 °F - 33.8 °F 58% 30.22 in 10.0 mi NNW 13.8 mph 24.2 mph N/A   Clear
8:35 AM 48.2 °F - 33.8 °F 58% 30.23 in 9.0 mi North 18.4 mph 33.4 mph N/A   Clear
8:55 AM 48.2 °F - 32.0 °F 54% 30.24 in 10.0 mi NNW 17.3 mph 25.3 mph N/A   Clear
9:15 AM 48.2 °F - 32.0 °F 54% 30.25 in 9.0 mi NNW 15.0 mph 25.3 mph N/A   Clear
9:35 AM 48.2 °F - 32.0 °F 54% 30.26 in 9.0 mi North 20.7 mph 26.5 mph N/A   Clear
9:55 AM 51.8 °F - 32.0 °F 47% 30.26 in 10.0 mi NNW 13.8 mph 24.2 mph N/A   Clear
10:15 AM 51.8 °F - 30.2 °F 44% 30.26 in 8.0 mi NNW 18.4 mph 25.3 mph N/A   Clear
10:35 AM 53.6 °F - 30.2 °F 41% 30.28 in 10.0 mi NW 21.9 mph 31.1 mph N/A   Clear
10:55 AM 51.8 °F - 28.4 °F 41% 30.28 in 8.0 mi NW 19.6 mph 26.5 mph N/A   Clear
11:15 AM 53.6 °F - 26.6 °F 35% 30.29 in 9.0 mi NNW 17.3 mph 27.6 mph N/A   Clear
11:35 AM 53.6 °F - 26.6 °F 35% 30.29 in 9.0 mi NNW 16.1 mph 25.3 mph N/A   Clear
11:55 AM 53.6 °F - 26.6 °F 35% 30.29 in 9.0 mi NNW 20.7 mph 26.5 mph N/A   Clear
12:15 PM 55.4 °F - 24.8 °F 31% 30.29 in 8.0 mi North 16.1 mph 24.2 mph N/A   Clear
12:35 PM 55.4 °F - 26.6 °F 33% 30.29 in 10.0 mi NW 20.7 mph 24.2 mph N/A   Clear
12:55 PM 55.4 °F - 26.6 °F 33% 30.29 in 9.0 mi NW 17.3 mph 24.2 mph N/A   Clear
1:15 PM 55.4 °F - 23.0 °F 29% 30.28 in 9.0 mi NW 15.0 mph 25.3 mph N/A   Clear
1:35 PM 55.4 °F - 21.2 °F 26% 30.28 in 9.0 mi NW 12.7 mph 21.9 mph N/A   Clear
1:55 PM 55.4 °F - 21.2 °F 26% 30.27 in 9.0 mi NW 17.3 mph 25.3 mph N/A   Clear
2:15 PM 55.4 °F - 19.4 °F 25% 30.28 in 10.0 mi NW 19.6 mph 27.6 mph N/A   Clear
2:35 PM 55.4 °F - 19.4 °F 25% 30.27 in 10.0 mi NNW 16.1 mph 26.5 mph N/A   Clear
2:55 PM 57.2 °F - 19.4 °F 23% 30.27 in 10.0 mi NW 12.7 mph 23.0 mph N/A   Clear
3:15 PM 55.4 °F - 19.4 °F 25% 30.27 in 10.0 mi NW 15.0 mph 20.7 mph N/A   Clear
3:35 PM 55.4 °F - 19.4 °F 25% 30.27 in 10.0 mi NW 18.4 mph 25.3 mph N/A   Clear
3:55 PM 57.2 °F - 19.4 °F 23% 30.27 in 9.0 mi NNW 13.8 mph 19.6 mph N/A   Clear
4:15 PM 55.4 °F - 19.4 °F 25% 30.27 in 10.0 mi NW 16.1 mph 20.7 mph N/A   Clear
4:35 PM 55.4 °F - 19.4 °F 25% 30.27 in 10.0 mi NW 13.8 mph - N/A   Clear
4:55 PM 55.4 °F - 19.4 °F 25% 30.27 in 10.0 mi NW 13.8 mph 20.7 mph N/A   Clear
5:15 PM 55.4 °F - 19.4 °F 25% 30.27 in 10.0 mi NW 13.8 mph 18.4 mph N/A   Clear
5:35 PM 55.4 °F - 21.2 °F 26% 30.28 in 10.0 mi NW 9.2 mph - N/A   Clear
5:55 PM 53.6 °F - 19.4 °F 26% 30.28 in 10.0 mi NW 10.4 mph - N/A   Clear
6:15 PM 51.8 °F - 21.2 °F 30% 30.29 in 10.0 mi NW 6.9 mph - N/A   Clear
6:35 PM 51.8 °F - 21.2 °F 30% 30.30 in 10.0 mi NNW 6.9 mph - N/A   Clear
6:55 PM 48.2 °F - 21.2 °F 34% 30.30 in 10.0 mi NW 4.6 mph - N/A   Clear
7:15 PM 48.2 °F - 23.0 °F 37% 30.31 in 10.0 mi WNW 4.6 mph - N/A   Clear
7:35 PM 48.2 °F - 21.2 °F 34% 30.31 in 10.0 mi WNW 3.5 mph - N/A   Clear
7:55 PM 48.2 °F - 21.2 °F 34% 30.32 in 10.0 mi WNW 4.6 mph - N/A   Clear
8:15 PM 46.4 °F 45.2 °F 21.2 °F 37% 30.32 in 10.0 mi WNW 3.5 mph - N/A   Clear
8:35 PM 46.4 °F 44.3 °F 21.2 °F 37% 30.33 in 10.0 mi WNW 4.6 mph - N/A   Clear
8:55 PM 46.4 °F 42.9 °F 21.2 °F 37% 30.34 in 10.0 mi NW 6.9 mph - N/A   Clear
9:15 PM 46.4 °F 42.9 °F 24.8 °F 43% 30.34 in 10.0 mi NNW 6.9 mph - N/A   Clear
9:35 PM 46.4 °F 42.4 °F 23.0 °F 40% 30.34 in 10.0 mi NNW 8.1 mph - N/A   Clear
9:55 PM 46.4 °F 42.9 °F 23.0 °F 40% 30.35 in 10.0 mi NW 6.9 mph - N/A   Clear
10:15 PM 44.6 °F 41.4 °F 23.0 °F 43% 30.36 in 10.0 mi NW 5.8 mph - N/A   Clear
10:35 PM 44.6 °F 41.4 °F 23.0 °F 43% 30.36 in 10.0 mi NW 5.8 mph - N/A   Clear
10:55 PM 42.8 °F 40.1 °F 24.8 °F 49% 30.36 in 10.0 mi NNW 4.6 mph - N/A   Clear
11:15 PM 42.8 °F 39.3 °F 24.8 °F 49% 30.36 in 10.0 mi NW 5.8 mph - N/A   Clear
11:35 PM 42.8 °F 39.3 °F 24.8 °F 49% 30.36 in 10.0 mi NNW 5.8 mph - N/A   Clear
11:55 PM 41.0 °F 37.1 °F 24.8 °F 53% 30.36 in 10.0 mi NNW 5.8 mph - N/A   Clear